Time,TemperatureF,DewpointF,PressureIn,WindDirection,WindDirectionDegrees,WindSpeedMPH,WindSpeedGustMPH,Humidity,HourlyPrecipIn,Conditions,Clouds,dailyrainin,SoftwareType,DateUTC
2014-01-01 02:00:00,30.0,-99.9,-100.00,North,-999,-999.0,-999.0,-999,-99.99,,,0.00,,2014-01-01 10:00:00,
2014-01-01 02:53:00,30.0,-99.9,-100.00,North,-999,-999.0,-999.0,-999,-99.99,,,0.00,,2014-01-01 10:53:00,
2014-01-01 03:00:00,30.0,-99.9,-100.00,North,-999,-999.0,-999.0,-999,-99.99,,,-99.99,,2014-01-01 11:00:00,
2014-01-01 03:53:00,30.0,-99.9,-100.00,North,-999,-999.0,-999.0,-999,-99.99,,,-99.99,,2014-01-01 11:53:00,
2014-01-01 04:00:00,30.0,-99.9,-100.00,North,-999,-999.0,-999.0,-999,-99.99,,,-99.99,,2014-01-01 12:00:00,
2014-01-01 04:52:00,30.0,-99.9,-100.00,North,-999,-999.0,-999.0,-999,-99.99,,,-99.99,,2014-01-01 12:52:00,
2014-01-01 05:00:00,30.0,-99.9,-100.00,North,-999,-999.0,-999.0,-999,-99.99,,,0.01,,2014-01-01 13:00:00,
2014-01-01 05:53:00,30.0,-99.9,-100.00,North,-999,-999.0,-999.0,-999,-99.99,,,0.01,,2014-01-01 13:53:00,
2014-01-01 06:00:00,30.0,-99.9,-100.00,North,-999,-999.0,-999.0,-999,-99.99,,,-99.99,,2014-01-01 14:00:00,
2014-01-01 06:53:00,30.0,-99.9,-100.00,North,-999,-999.0,-999.0,-999,-99.99,,,-99.99,,2014-01-01 14:53:00,
2014-01-01 07:00:00,30.0,-99.9,-100.00,North,-999,-999.0,-999.0,-999,-99.99,,,0.00,,2014-01-01 15:00:00,
2014-01-01 07:54:00,30.0,-99.9,-100.00,North,-999,-999.0,-999.0,-999,-99.99,,,0.00,,2014-01-01 15:54:00,
2014-01-01 08:00:00,31.0,-99.9,-100.00,North,-999,-999.0,-999.0,-999,-99.99,,,0.01,,2014-01-01 16:00:00,
2014-01-01 08:53:00,31.0,-99.9,-100.00,North,-999,-999.0,-999.0,-999,-99.99,,,0.01,,2014-01-01 16:53:00,
2014-01-01 12:00:00,41.0,-99.9,-100.00,North,-999,-999.0,-999.0,-999,-99.99,,,-99.99,,2014-01-01 20:00:00,
2014-01-01 12:53:00,41.0,-99.9,-100.00,North,-999,-999.0,-999.0,-999,-99.99,,,-99.99,,2014-01-01 20:53:00,
2014-01-01 14:00:00,42.0,-99.9,-100.00,North,-999,-999.0,-999.0,-999,-99.99,,,-99.99,,2014-01-01 22:00:00,
2014-01-01 14:53:00,42.0,-99.9,-100.00,North,-999,-999.0,-999.0,-999,-99.99,,,-99.99,,2014-01-01 22:53:00,
2014-01-01 15:00:00,42.0,-99.9,-100.00,North,-999,-999.0,-999.0,-999,-99.99,,,-99.99,,2014-01-01 23:00:00,
2014-01-01 15:53:00,42.0,-99.9,-100.00,North,-999,-999.0,-999.0,-999,-99.99,,,-99.99,,2014-01-01 23:53:00,
2014-01-01 17:00:00,38.0,-99.9,-100.00,North,-999,-999.0,-999.0,-999,-99.99,,,-99.99,,2014-01-02 01:00:00,
2014-01-01 17:52:00,38.0,-99.9,-100.00,North,-999,-999.0,-999.0,-999,-99.99,,,-99.99,,2014-01-02 01:52:00,
2014-01-01 20:00:00,40.0,-99.9,-100.00,North,-999,-999.0,-999.0,-999,-99.99,,,0.00,,2014-01-02 04:00:00,
2014-01-01 20:53:00,40.0,-99.9,-100.00,North,-999,-999.0,-999.0,-999,-99.99,,,0.00,,2014-01-02 04:53:00,
2014-01-01 21:00:00,37.0,-99.9,-100.00,North,-999,-999.0,-999.0,-999,-99.99,,,-99.99,,2014-01-02 05:00:00,
2014-01-01 21:53:00,37.0,-99.9,-100.00,North,-999,-999.0,-999.0,-999,-99.99,,,-99.99,,2014-01-02 05:53:00,
2014-01-01 23:00:00,38.0,-99.9,-100.00,North,-999,-999.0,-999.0,-999,-99.99,,,-99.99,,2014-01-02 07:00:00,
2014-01-01 23:52:00,38.0,-99.9,-100.00,North,-999,-999.0,-999.0,-999,-99.99,,,-99.99,,2014-01-02 07:52:00,